User: anonymous
Location: NJAA Observatory
(40.6819°N, 74.8979°W)
Time: 17:24:28
(UTC-04:00)
Language:

Meteor 1-28 Rocket - Orbit

View from above orbital plane
View from above orbital plane
View from above satellite
View from above satellite

Ground track
Ground track

The orbit data is extracted from the following two-line orbital elements,

1 10114U 77057B   14106.17331814  .00002532  00000-0  14610-3 0  2230
2 10114 097.2794 329.2907 0016230 042.6158 317.6330 15.13105856  8182
Epoch (UTC): 16 April 2014 04:09:34
Eccentricity: 0.0016230
inclination: 97.2794°
perigee height: 515 km
apogee height: 538 km
right ascension of ascending node: 329.2907°
argument of perigee: 42.6158°
revolutions per day: 15.13105856
mean anomaly at epoch: 317.6330°
orbit number at epoch: 818

The dashed part of the orbit path shows where the satellite is in the earth's shadow,  

DLR